Regional Weather Roundup
Issued by NWS Green Bay, WI

Home | Current Version | Previous Version | Graphics & Text | Print | Product List | Glossary Off
Versions: 1 2 3 4 5 6 7 8 9 10 11 12 13 14 15 16 17 18 19 20 21 22 23 24 25 26 27 28 29 30 31 32 33 34 35 36 37 38 39 40 41 42 43 44 45 46 47 48 49 50

000
ASUS43 KGRB 241811
RWRGRB

NORTH-CENTRAL AND NORTHEAST WISCONSIN REGIONAL WEATHER ROUNDUP
NATIONAL WEATHER SERVICE GREEN BAY WI
1200 PM CST TUE JAN 24 2017

WIZ005-009-010>012-018-019-241900-
NORTH CENTRAL WISCONSIN

CITY           SKY/WX    TMP DP  RH WIND       PRES   REMARKS
IRONWOOD       CLOUDY    34  28  80 NW5       29.84F
MANITOWISH WTR CLOUDY    33  32  96 CALM      29.81F
ARBOR VITAE    CLOUDY    37  33  86 NW3       29.81F
EAGLE RIVER    CLOUDY    34  32  94 NW6       29.80F
LAND O LAKES   CLOUDY    34  32  93 N6        29.81F
RHINELANDER    CLOUDY    36  31  82 NW3       29.81F
PHILLIPS       CLOUDY    33  29  88 N5        29.82F
ANTIGO         CLOUDY    34  31  90 N5        29.81F
TOMAHAWK       CLOUDY    34  29  84 NW3       29.82F
MERRILL        CLOUDY    35  30  81 N8          N/A
$$

WIZ013-073-241900-
NORTHEAST WISCONSIN

CITY           SKY/WX    TMP DP  RH WIND       PRES   REMARKS
IRON MOUNTAIN  CLOUDY    36  31  82 NW6       29.79F
MARINETTE      NOT AVBL
OCONTO         CLOUDY    37  34  87 NW5       29.82F
$$

WIZ017-030-035>037-045-241900-
CENTRAL WISCONSIN

CITY           SKY/WX    TMP DP  RH WIND       PRES   REMARKS
MEDFORD        CLOUDY    32  29  88 CALM      29.81F
WAUSAU         CLOUDY    35  29  78 N8        29.81F
MOSINEE        NOT AVBL
MARSHFIELD     CLOUDY    35  28  75 NE5       29.81F
WISC RAPIDS    CLOUDY    36  30  79 CALM      29.85F
STEVENS POINT  CLOUDY    34  30  85 E3        29.83F
WAUPACA        CLOUDY    39  32  76 CALM      29.84F
SHAWANO        CLOUDY    41  34  76 NW3       29.83F
CLINTONVILLE   CLOUDY    37  32  81 CALM      29.83F
WAUTOMA        CLOUDY    37  32  82 NW3       29.86S
$$

WIZ038-039-048-051-241900-
FOX VALLEY

CITY           SKY/WX    TMP DP  RH WIND       PRES   REMARKS
NWS GREEN BAY  PTSUNNY   43  36  76 NW8       29.82F
APPLETON       CLOUDY    37  36  93 NW8       29.81F
OSHKOSH        CLOUDY    38  33  82 NW6       29.83F
FOND DU LAC    CLOUDY    39  32  76 NW5       29.84F
$$

WIZ022-050-052-241900-
EAST CENTRAL WISCONSIN

CITY           SKY/WX    TMP DP  RH WIND       PRES   REMARKS
EPHRAIM        CLOUDY    35  35 100 N8        29.80F
WASHINGTON ISL DRIZZLE   35  34  97 N7        29.80F
STURGEON BAY   CLOUDY    37  37 100 NW8       29.82F
MANITOWOC      CLOUDY    40  35  83 N12       29.82F
SHEBOYGAN      CLOUDY    39  34  82 W6        29.83F
$$

LMZ563-521-522-541>543-241900-
LAKESHORE

STATION/POSITION TIME  TEMP    WIND        PRES    VSBY  WAVE
                       AIR SEA DIR/SP/G                  HT/PER
                 (UTC) (F)     (DEG/KT/KT) (MB)    (MI)  (FT/S)
SHEBOYGAN LKSHOR 1800   38     300/  7/  8 1010.3F
KEWAUNEE LKSHORE 1748   39     350/  7/ 10 1009.4F
NORTHPORT PIER   1740   35     300/  8/ 11 1009.8F
SISTER BAY LKSHO 1735   35        CALM       N/A
MENOMINEE LKSHOR 1748   37     310/  7/  8 1009.0F
$$




USA.gov is the U.S. government's official web portal to all federal, state and local government web resources and services.